Temp
-18 -19 -19 -19 -18 -18 -18 -18 -19 -17 -18 -14 -17 -18 -18 -18 -18 -18 -18 -18 -18 -18 -18 -19 -19 -19 -19 -20 -20 -20 -20 -20 -20 -21 -21 -22 -22 -23 -23 -23 -23 -24 -25 -25
-19 -19 -19 -18 -18 -18 -18 -19 -20 -19 -17 -16 -17 -19 -19 -19 -19 -19 -18 -19 -19 -18 -18 -19 -20 -20 -20 -20 -20 -21 -21 -21 -21 -21 -22 -22 -23 -23 -23 -23 -24 -25 -25 -25
-20 -20 -21 -20 -19 -19 -19 -19 -19 -19 -19 -17 -18 -19 -18 -20 -18 -19 -19 -19 -19 -18 -19 -20 -20 -21 -21 -21 -21 -21 -21 -22 -22 -22 -23 -23 -23 -23 -24 -24 -25 -25 -26 -26
-22 -22 -22 -21 -20 -20 -20 -20 -20 -20 -20 -19 -19 -19 -20 -18 -19 -19 -19 -19 -19 -19 -19 -20 -20 -21 -21 -21 -22 -22 -22 -22 -22 -23 -23 -23 -24 -24 -25 -26 -26 -26 -26 -26
-23 -22 -22 -22 -21 -21 -21 -21 -21 -21 -21 -20 -19 -19 -18 -19 -19 -20 -19 -19 -20 -20 -20 -21 -20 -21 -21 -22 -22 -22 -23 -23 -23 -23 -23 -24 -24 -25 -26 -26 -26 -27 -27 -27
-23 -23 -23 -22 -22 -22 -22 -22 -21 -21 -21 -21 -21 -20 -20 -20 -20 -20 -20 -20 -20 -21 -21 -21 -21 -22 -22 -22 -22 -23 -23 -23 -23 -24 -24 -25 -25 -26 -26 -27 -27 -27 -27 -27
-22 -23 -23 -22 -22 -23 -23 -22 -22 -21 -21 -21 -21 -21 -21 -21 -21 -20 -21 -21 -21 -21 -21 -22 -22 -22 -22 -22 -23 -23 -23 -24 -24 -24 -25 -26 -26 -27 -27 -27 -28 -28 -28 -28
-24 -24 -24 -23 -22 -23 -23 -23 -22 -21 -23 -23 -22 -22 -21 -22 -21 -21 -21 -21 -21 -21 -22 -22 -22 -22 -22 -23 -23 -23 -24 -24 -24 -25 -26 -27 -27 -27 -27 -28 -28 -28 -28 -28
-25 -25 -24 -24 -23 -23 -23 -23 -22 -22 -22 -23 -23 -23 -23 -23 -22 -22 -21 -21 -22 -22 -22 -22 -22 -23 -23 -23 -24 -24 -24 -24 -25 -26 -27 -27 -27 -27 -28 -28 -28 -29 -29 -29
-25 -25 -24 -24 -24 -24 -23 -23 -24 -24 -23 -23 -23 -22 -22 -22 -22 -22 -21 -22 -22 -22 -22 -22 -23 -23 -23 -24 -24 -24 -25 -25 -26 -27 -27 -27 -27 -28 -28 -28 -29 -29 -29 -29
-25 -25 -25 -25 -25 -25 -24 -24 -25 -24 -24 -23 -23 -22 -22 -23 -22 -22 -22 -22 -22 -22 -23 -23 -23 -23 -24 -24 -24 -25 -25 -26 -26 -27 -27 -27 -28 -28 -29 -29 -29 -29 -29 -29
-26 -26 -25 -25 -25 -25 -25 -25 -24 -24 -23 -23 -23 -23 -23 -22 -22 -22 -22 -23 -23 -23 -23 -23 -24 -24 -24 -24 -25 -25 -26 -26 -27 -27 -27 -28 -28 -29 -29 -29 -29 -30 -30 -30
-26 -25 -24 -25 -26 -25 -25 -25 -25 -24 -24 -24 -24 -24 -23 -22 -22 -23 -23 -23 -23 -23 -24 -24 -24 -24 -24 -24 -25 -25 -26 -26 -27 -27 -28 -28 -29 -29 -29 -30 -30 -30 -30 -30
-26 -26 -25 -25 -25 -25 -25 -24 -24 -24 -23 -24 -23 -23 -23 -23 -23 -23 -23 -23 -24 -24 -24 -24 -24 -24 -24 -24 -25 -25 -26 -26 -27 -28 -28 -29 -29 -29 -30 -30 -30 -31 -31 -31
-27 -26 -25 -26 -25 -25 -25 -24 -24 -24 -23 -23 -23 -23 -23 -24 -24 -23 -24 -24 -24 -24 -24 -24 -24 -24 -25 -25 -25 -26 -26 -27 -27 -28 -29 -29 -30 -30 -30 -31 -31 -31 -31 -31
-26 -26 -26 -25 -24 -24 -24 -24 -24 -23 -23 -23 -23 -24 -24 -24 -24 -24 -24 -24 -24 -24 -24 -24 -24 -25 -25 -25 -26 -26 -27 -27 -28 -29 -29 -30 -30 -30 -31 -31 -31 -31 -31 -31
-25 -25 -24 -25 -24 -25 -24 -24 -24 -23 -24 -24 -24 -24 -24 -25 -25 -24 -24 -24 -24 -24 -24 -24 -25 -25 -26 -26 -26 -27 -27 -28 -29 -29 -30 -30 -30 -31 -31 -31 -31 -32 -32 -32
-25 -25 -25 -25 -24 -24 -24 -23 -24 -23 -24 -24 -25 -25 -25 -25 -24 -25 -25 -25 -25 -25 -25 -25 -26 -26 -26 -27 -27 -28 -28 -29 -29 -30 -30 -30 -31 -31 -31 -32 -32 -32 -32 -32
-25 -25 -24 -24 -24 -24 -24 -24 -24 -24 -25 -25 -25 -25 -25 -25 -25 -25 -25 -25 -25 -25 -25 -26 -26 -27 -27 -27 -28 -28 -29 -29 -30 -30 -30 -31 -31 -31 -32 -32 -32 -32 -32 -32
-24 -24 -24 -24 -24 -24 -24 -25 -25 -25 -25 -25 -25 -25 -25 -25 -25 -25 -25 -25 -25 -25 -26 -26 -27 -27 -28 -28 -28 -29 -29 -30 -30 -31 -31 -31 -31 -32 -32 -32 -32 -32 -32 -33
-24 -24 -24 -25 -25 -24 -25 -25 -25 -25 -25 -25 -25 -25 -25 -25 -25 -25 -25 -26 -26 -26 -27 -27 -27 -28 -28 -28 -29 -29 -30 -31 -31 -31 -31 -31 -32 -32 -32 -32 -32 -33 -33 -33
-24 -24 -24 -25 -25 -25 -25 -25 -25 -25 -25 -25 -25 -25 -25 -25 -25 -26 -26 -26 -27 -27 -27 -27 -28 -28 -29 -29 -29 -30 -31 -31 -31 -31 -32 -32 -32 -33 -33 -33 -33 -33 -33 -33
-25 -25 -25 -25 -25 -25 -25 -25 -26 -25 -26 -26 -25 -25 -26 -26 -26 -26 -26 -27 -27 -27 -27 -28 -28 -29 -29 -30 -30 -31 -31 -31 -32 -32 -32 -32 -33 -33 -33 -33 -33 -33 -33 -33
-25 -25 -25 -25 -25 -26 -26 -26 -26 -26 -26 -26 -26 -26 -26 -26 -26 -26 -27 -27 -27 -27 -27 -28 -29 -30 -30 -30 -31 -31 -32 -32 -32 -32 -33 -33 -33 -33 -33 -33 -33 -33 -33 -34
-26 -26 -26 -26 -26 -26 -26 -26 -26 -26 -26 -26 -26 -26 -26 -26 -27 -27 -27 -27 -28 -28 -28 -29 -30 -30 -31 -31 -32 -32 -33 -33 -33 -33 -33 -33 -33 -33 -33 -33 -33 -34 -34 -34
-26 -26 -26 -26 -26 -26 -26 -26 -26 -26 -26 -26 -27 -27 -27 -27 -27 -27 -28 -28 -29 -29 -29 -30 -31 -31 -32 -33 -33 -33 -33 -33 -33 -33 -33 -33 -33 -33 -33 -34 -34 -34 -34 -35
-26 -26 -26 -26 -26 -26 -26 -26 -26 -27 -27 -27 -27 -27 -27 -28 -28 -28 -28 -29 -29 -30 -31 -31 -32 -32 -33 -33 -33 -33 -33 -33 -33 -33 -33 -33 -33 -34 -34 -34 -34 -34 -35 -35
Height
5609 5612 5614 5617 5617 5617 5617 5619 5617 5626 5623 5643 5638 5636 5632 5631 5629 5629 5628 5624 5625 5624 5626 5623 5618 5614 5612 5608 5604 5601 5597 5592 5588 5582 5575 5569 5563 5556 5549 5541 5533 5526 5522 5518
5591 5598 5599 5599 5600 5604 5607 5608 5607 5611 5612 5627 5626 5624 5617 5614 5619 5617 5615 5610 5609 5613 5614 5610 5607 5603 5600 5596 5593 5590 5585 5581 5576 5569 5564 5558 5552 5545 5536 5529 5522 5517 5512 5508
5575 5585 5584 5575 5592 5594 5592 5593 5594 5596 5604 5614 5608 5606 5605 5602 5608 5604 5601 5599 5598 5601 5603 5599 5595 5591 5588 5586 5582 5578 5574 5569 5564 5558 5552 5546 5540 5532 5525 5518 5513 5508 5503 5498
5561 5568 5559 5569 5575 5581 5580 5583 5584 5585 5588 5596 5595 5594 5590 5593 5592 5592 5590 5585 5584 5586 5589 5588 5585 5581 5578 5575 5572 5568 5563 5557 5552 5547 5541 5534 5527 5520 5514 5509 5504 5499 5494 5488
5550 5551 5551 5554 5568 5570 5566 5568 5575 5573 5574 5578 5581 5578 5583 5582 5581 5580 5578 5577 5576 5575 5576 5576 5573 5570 5567 5564 5560 5556 5550 5546 5541 5534 5529 5523 5516 5509 5505 5500 5495 5490 5484 5478
5539 5536 5535 5550 5560 5559 5555 5559 5567 5562 5564 5564 5562 5568 5571 5568 5567 5570 5568 5566 5566 5566 5565 5564 5561 5559 5556 5553 5550 5545 5540 5535 5530 5523 5517 5511 5505 5500 5496 5491 5486 5480 5474 5467
5525 5524 5527 5542 5550 5550 5543 5554 5552 5550 5553 5553 5553 5558 5557 5557 5556 5558 5559 5559 5557 5555 5554 5552 5549 5548 5545 5542 5538 5533 5529 5524 5518 5512 5506 5500 5496 5492 5487 5481 5476 5470 5464 5457
5517 5509 5516 5533 5534 5533 5535 5535 5542 5545 5541 5544 5545 5545 5547 5547 5546 5548 5549 5548 5548 5546 5544 5542 5540 5538 5535 5531 5527 5523 5519 5513 5507 5501 5495 5491 5487 5483 5477 5471 5466 5460 5454 5446
5507 5506 5512 5521 5523 5524 5523 5524 5530 5531 5531 5535 5536 5536 5536 5536 5537 5538 5539 5538 5536 5536 5535 5533 5530 5527 5524 5521 5517 5513 5507 5502 5496 5490 5486 5482 5478 5473 5467 5462 5456 5450 5443 5436
5493 5499 5502 5507 5511 5508 5511 5514 5514 5516 5520 5521 5524 5526 5526 5526 5528 5528 5527 5526 5526 5525 5525 5522 5519 5517 5514 5511 5507 5502 5496 5492 5486 5481 5478 5473 5469 5463 5458 5452 5446 5439 5432 5424
5486 5488 5490 5495 5498 5495 5494 5502 5503 5504 5509 5510 5513 5514 5514 5515 5516 5515 5515 5516 5516 5515 5515 5512 5510 5508 5504 5501 5497 5491 5487 5481 5477 5473 5468 5464 5459 5453 5447 5441 5434 5427 5419 5411
5476 5481 5480 5483 5485 5487 5486 5488 5491 5494 5497 5498 5502 5502 5503 5505 5505 5505 5505 5507 5507 5506 5506 5503 5501 5498 5495 5490 5486 5481 5476 5472 5467 5463 5458 5453 5448 5443 5437 5430 5423 5416 5407 5398
5470 5474 5471 5476 5477 5477 5479 5480 5482 5484 5485 5487 5490 5492 5494 5495 5495 5496 5498 5498 5498 5499 5496 5494 5491 5489 5485 5480 5475 5471 5467 5462 5457 5452 5447 5442 5436 5431 5424 5417 5409 5402 5395 5386
5461 5460 5465 5468 5468 5470 5471 5470 5471 5472 5474 5478 5481 5482 5485 5486 5488 5489 5490 5490 5491 5489 5487 5485 5483 5480 5475 5470 5466 5461 5456 5451 5447 5441 5436 5431 5426 5420 5414 5407 5400 5392 5383 5375
5451 5455 5458 5458 5460 5463 5464 5463 5463 5465 5468 5471 5474 5477 5478 5480 5481 5481 5483 5484 5481 5479 5478 5476 5474 5470 5466 5462 5456 5451 5446 5441 5436 5431 5425 5420 5415 5409 5403 5396 5389 5382 5374 5364
5444 5450 5452 5454 5457 5456 5455 5457 5459 5462 5464 5465 5469 5471 5473 5474 5475 5477 5476 5474 5472 5471 5470 5467 5464 5460 5456 5451 5446 5441 5436 5431 5426 5421 5415 5410 5404 5398 5392 5386 5378 5370 5362 5354
5443 5446 5448 5449 5449 5448 5448 5452 5456 5458 5460 5462 5464 5467 5469 5469 5469 5469 5468 5467 5465 5463 5461 5458 5454 5451 5446 5441 5437 5432 5427 5421 5416 5411 5405 5400 5394 5388 5381 5375 5367 5359 5351 5342
5436 5439 5442 5442 5443 5445 5448 5450 5453 5454 5456 5459 5461 5462 5463 5463 5462 5462 5461 5460 5458 5455 5452 5449 5445 5441 5436 5431 5426 5421 5416 5411 5406 5400 5395 5389 5383 5377 5370 5363 5356 5348 5340 5331
5434 5436 5437 5438 5441 5443 5446 5449 5450 5451 5453 5455 5456 5457 5457 5457 5456 5455 5454 5452 5450 5447 5443 5440 5435 5431 5426 5421 5416 5411 5406 5400 5395 5390 5384 5378 5372 5366 5359 5352 5345 5337 5328 5320
5430 5433 5435 5437 5440 5442 5444 5446 5446 5448 5449 5451 5451 5451 5451 5451 5450 5448 5447 5445 5442 5438 5434 5430 5426 5421 5416 5410 5405 5400 5394 5389 5384 5379 5373 5367 5361 5354 5347 5340 5333 5325 5317 5308
5428 5431 5433 5435 5437 5440 5441 5442 5443 5445 5446 5446 5446 5447 5446 5445 5443 5441 5439 5437 5433 5428 5425 5420 5416 5410 5405 5399 5394 5388 5383 5378 5372 5367 5361 5355 5349 5343 5336 5328 5321 5313 5305 5297
5426 5429 5431 5434 5436 5437 5438 5440 5441 5442 5442 5442 5442 5441 5440 5438 5436 5434 5431 5428 5424 5419 5415 5410 5405 5398 5393 5387 5381 5376 5371 5366 5360 5355 5349 5343 5337 5330 5323 5316 5309 5301 5293 5285
5425 5427 5430 5432 5433 5434 5436 5437 5437 5437 5437 5437 5436 5434 5433 5431 5429 5425 5422 5418 5414 5408 5404 5399 5392 5386 5381 5375 5370 5364 5359 5354 5348 5343 5337 5331 5325 5318 5311 5304 5297 5289 5281 5273
5423 5425 5428 5429 5430 5431 5432 5433 5433 5433 5432 5430 5429 5428 5426 5423 5420 5416 5412 5408 5403 5397 5393 5387 5380 5374 5368 5362 5357 5352 5347 5341 5336 5330 5325 5319 5312 5306 5299 5291 5284 5276 5268 5259
5422 5424 5425 5426 5427 5428 5428 5429 5428 5427 5426 5425 5423 5420 5417 5414 5410 5406 5402 5397 5393 5386 5381 5374 5367 5361 5355 5349 5344 5339 5334 5329 5323 5318 5312 5306 5300 5293 5286 5279 5271 5263 5254 5245
5420 5421 5422 5423 5424 5424 5424 5423 5422 5421 5420 5417 5414 5411 5407 5404 5400 5397 5392 5386 5379 5373 5367 5361 5353 5347 5341 5336 5331 5327 5322 5317 5311 5306 5300 5294 5288 5281 5274 5267 5258 5250 5241 5232
5417 5418 5419 5419 5419 5419 5418 5418 5416 5414 5412 5408 5405 5401 5398 5395 5390 5386 5380 5374 5367 5359 5352 5347 5341 5334 5329 5325 5320 5315 5310 5305 5300 5294 5289 5283 5276 5269 5261 5253 5244 5236 5228 5219
Wind_Speed
47 45 51 53 52 49 43 44 48 56 58 47 52 54 59 58 57 55 54 56 53 52 47 45 46 48 48 46 46 47 49 52 54 56 57 56 55 56 58 61 61 47 37 34
63 58 49 54 59 63 53 49 42 40 54 53 55 54 52 55 56 55 53 57 57 52 44 42 44 46 46 44 47 50 51 52 55 56 55 54 55 58 60 60 48 38 36 35
55 63 58 65 61 61 59 59 54 52 56 57 53 53 53 48 49 52 58 55 54 50 41 41 42 45 45 46 48 49 51 53 54 53 53 54 57 59 60 50 39 40 38 39
60 54 59 60 64 62 58 57 51 48 48 44 46 49 51 54 48 54 53 54 51 42 41 41 42 43 44 46 48 50 52 52 52 51 52 56 58 58 50 40 41 42 42 44
47 54 57 46 51 42 43 44 39 44 43 44 49 53 55 53 50 53 50 45 43 46 37 36 40 42 44 46 48 50 49 49 49 51 55 57 56 48 40 42 44 43 44 46
52 42 44 31 38 45 53 35 22 34 28 30 37 39 36 39 43 43 41 44 42 36 36 40 40 42 44 46 48 47 46 47 50 53 55 53 46 39 41 43 44 45 46 47
51 55 59 52 45 42 45 43 41 33 30 34 38 24 22 23 29 32 31 34 37 38 40 40 41 42 44 45 44 43 45 48 51 53 51 44 38 39 42 44 45 45 45 47
54 51 52 30 40 45 46 50 52 45 54 52 51 47 45 27 30 34 34 35 37 39 39 41 40 42 43 41 42 44 47 49 50 48 42 37 38 41 44 46 45 43 46 49
56 62 61 47 46 49 47 52 52 52 52 45 41 38 34 31 31 33 40 44 36 36 39 39 40 38 37 40 43 46 48 47 46 40 36 38 40 42 43 44 44 46 49 53
45 37 50 57 55 57 60 56 42 43 50 44 40 34 32 33 37 42 41 32 33 33 37 36 34 36 39 41 44 46 44 43 39 37 38 41 42 43 44 46 47 50 54 57
51 50 53 43 40 38 49 48 40 41 36 36 32 35 36 36 40 43 32 31 31 32 32 32 35 37 39 41 42 41 39 38 38 39 43 44 44 45 47 48 51 54 58 60
36 37 33 24 29 31 38 42 42 42 40 38 36 36 32 37 38 31 26 29 28 28 31 33 35 37 38 39 38 38 38 39 40 42 45 45 45 47 49 51 53 56 59 59
39 28 21 30 27 33 29 34 33 37 32 29 32 34 38 37 31 24 25 23 24 29 30 33 34 35 34 34 36 37 39 40 43 44 45 45 46 48 49 52 54 57 57 57
27 26 38 30 35 37 36 33 29 33 33 33 29 37 35 25 19 18 20 23 27 28 30 31 31 31 32 33 35 36 38 40 42 43 44 45 46 47 48 50 52 54 55 57
33 32 34 34 36 32 33 29 22 27 31 35 36 28 16 15 16 18 22 25 26 28 28 28 29 31 33 35 36 38 39 41 43 44 44 45 46 48 49 50 51 51 53 57
35 29 32 33 30 26 24 22 28 27 25 20 15 14 13 14 17 20 23 24 25 26 26 29 31 33 35 36 38 40 41 43 43 44 44 46 46 47 47 47 49 51 53 55
28 22 24 34 26 24 19 23 25 17 13 10 11 13 14 16 19 21 22 23 24 26 28 30 33 35 36 38 40 42 43 44 44 44 44 45 45 45 46 47 49 51 54 55
26 25 25 21 17 19 19 17 17 11 10 11 12 13 16 18 20 21 22 23 25 28 31 34 36 37 39 41 42 43 43 44 44 44 44 44 45 45 47 49 50 51 55 55
15 15 11 11 16 16 15 14 12 11 9 9 13 16 18 20 21 23 24 26 29 32 35 37 39 40 42 43 44 45 44 44 44 44 44 45 46 47 48 49 50 52 55 54
11 11 8 12 12 14 13 11 9 7 10 14 16 18 21 23 24 26 28 31 33 37 38 40 41 43 44 45 46 45 45 44 43 44 45 46 47 48 49 49 51 54 55 55
14 12 14 13 14 13 11 8 9 12 15 17 19 21 23 25 28 30 32 34 36 40 40 43 44 45 46 47 47 45 44 44 44 45 46 47 48 48 49 51 53 55 54 55
12 13 14 15 13 11 10 11 13 16 18 20 22 24 26 29 31 33 35 37 39 43 44 44 46 48 47 47 46 45 44 44 44 46 46 47 48 49 50 52 54 54 54 57
14 16 15 13 12 11 12 15 17 18 20 22 24 26 29 32 34 36 37 39 41 44 45 46 48 49 48 47 45 45 45 44 45 47 47 47 49 50 51 53 52 53 56 59
17 15 12 12 13 14 16 17 18 20 22 24 27 29 32 33 36 38 38 41 42 45 47 48 49 49 48 47 47 46 44 45 47 46 47 49 48 50 52 50 52 55 59 61
10 11 13 14 15 16 17 18 20 22 24 27 30 32 34 35 37 39 40 42 45 49 50 50 51 51 50 49 46 44 44 45 45 46 47 47 49 49 49 52 55 59 61 60
14 14 15 16 16 17 19 21 23 25 28 31 33 35 36 36 37 38 41 46 49 52 54 53 51 48 45 41 41 42 44 45 45 45 45 46 46 49 52 55 58 59 58 57
15 16 16 18 19 21 23 25 27 29 32 35 36 36 35 36 39 43 46 50 53 54 51 45 44 43 42 41 40 40 41 41 42 42 43 47 50 53 56 57 57 56 55 56
Wind_Direction
232 240 239 239 243 233 235 245 255 257 263 254 264 273 275 278 274 273 280 276 275 282 283 280 283 287 289 289 291 293 295 298 299 299 300 302 304 304 307 309 310 306 301 305
240 241 228 230 228 235 243 243 254 267 257 261 270 272 272 269 268 272 275 276 281 282 280 281 284 289 289 291 293 294 297 298 299 299 301 303 303 306 308 309 304 299 302 304
256 257 255 254 231 246 257 254 259 260 264 265 267 267 269 273 267 266 268 279 280 278 278 282 286 284 287 290 292 294 296 297 299 300 302 303 305 307 309 304 297 300 300 302
262 261 262 259 258 260 258 255 251 261 263 260 261 263 275 272 276 272 276 278 275 279 284 281 279 284 288 291 293 295 296 297 298 300 302 304 306 307 304 298 301 301 300 302
262 254 250 246 256 263 262 256 258 264 275 274 271 268 272 271 273 262 268 270 272 281 278 280 283 288 291 292 291 292 295 297 299 302 304 305 306 303 298 302 302 301 303 303
238 245 249 247 253 260 263 264 244 253 257 263 249 256 259 259 260 262 267 267 273 273 279 285 287 290 291 290 292 294 295 298 301 302 304 305 302 298 301 301 303 302 303 307
265 265 262 260 260 266 255 257 241 244 252 263 275 258 254 277 269 263 266 272 274 279 286 286 288 289 289 291 292 293 297 300 301 303 304 301 297 300 301 304 304 303 306 309
244 259 273 272 256 259 265 260 250 248 269 278 276 284 277 279 282 267 271 276 285 287 284 286 287 290 291 290 293 297 299 301 302 302 300 296 299 300 303 305 304 305 309 312
254 262 266 257 262 264 266 274 270 269 267 272 279 279 280 286 273 279 277 274 279 281 283 286 288 289 290 294 296 297 300 302 302 299 297 299 299 300 304 304 304 306 310 313
255 260 256 257 257 261 263 265 258 257 268 275 277 272 270 266 265 267 267 278 280 281 284 284 287 290 292 295 297 300 302 304 303 299 299 298 297 300 302 302 305 308 311 314
249 255 258 260 243 259 262 257 265 265 262 262 262 258 259 258 268 264 267 276 278 280 281 285 289 292 296 298 301 302 306 307 304 301 301 297 296 299 300 303 307 309 312 315
253 256 269 234 245 262 261 253 256 262 260 255 252 259 264 268 263 260 268 273 276 280 283 288 293 297 299 301 303 304 307 305 302 300 301 297 295 297 300 304 307 310 313 315
248 268 274 257 260 261 276 257 247 260 260 257 256 259 261 256 253 259 270 273 278 281 289 295 297 298 301 306 308 308 305 304 301 300 301 298 297 300 304 306 309 312 314 317
250 252 253 258 261 261 267 262 273 261 251 248 255 253 249 247 262 263 272 277 281 290 295 296 297 301 305 307 305 306 307 305 303 303 302 299 300 304 306 308 310 313 316 318
250 249 251 257 260 270 272 273 256 247 234 237 242 244 250 257 262 273 277 282 290 294 294 295 297 301 302 302 304 306 305 305 305 304 302 302 304 306 307 309 312 314 316 319
252 249 251 262 260 267 262 251 242 244 239 227 231 236 246 262 270 278 285 292 294 293 294 295 298 299 298 301 303 303 304 305 305 304 304 305 306 307 308 310 312 315 318 320
251 246 239 238 264 265 253 245 236 217 213 223 239 250 260 273 284 289 292 293 293 293 293 294 294 296 299 301 303 304 305 305 305 305 306 306 307 308 309 311 314 317 318 321
233 230 236 266 250 239 220 210 207 206 217 230 247 270 282 285 288 289 289 289 290 290 291 292 295 298 301 303 304 305 305 304 305 305 305 306 307 309 311 312 316 317 319 322
227 238 248 256 238 208 202 202 200 208 232 266 275 281 285 286 283 283 285 286 289 291 293 297 300 303 303 305 305 304 304 304 304 304 306 307 308 310 311 313 316 317 319 322
222 223 236 225 206 203 200 205 222 251 267 275 280 284 283 282 284 288 290 293 295 295 298 300 302 303 304 304 304 305 303 302 303 304 306 307 309 311 311 313 316 316 319 321
212 228 244 217 212 208 223 231 254 269 277 283 286 287 288 291 292 293 294 296 298 299 301 302 304 304 303 304 304 302 301 303 303 304 306 307 309 310 312 314 315 316 319 320
216 225 217 210 211 226 242 262 275 281 286 287 287 289 292 294 295 295 297 301 302 303 304 304 304 302 303 303 303 302 302 303 304 305 306 307 309 309 311 313 314 317 318 320
227 214 208 216 226 246 263 273 279 283 285 288 293 295 296 296 297 299 302 303 304 304 304 305 302 303 303 303 303 303 303 303 304 305 306 307 308 310 311 312 315 316 318 320
202 210 214 233 250 263 272 278 282 286 292 294 295 295 297 300 301 303 305 304 305 303 304 304 303 304 304 304 303 302 301 302 304 305 304 306 310 310 312 314 316 317 318 320
204 223 237 252 263 269 275 282 287 291 294 296 299 301 303 303 303 304 304 304 305 305 305 305 304 304 305 304 302 302 302 303 304 303 307 308 309 313 314 315 316 317 318 319
233 243 253 259 264 270 276 281 289 295 299 300 302 303 303 303 304 305 305 306 306 305 304 306 307 306 304 303 302 302 303 304 306 307 309 311 313 314 314 315 316 317 318 318
247 252 256 262 270 278 285 290 292 297 301 302 304 303 303 304 305 307 308 308 306 307 309 311 311 309 308 307 307 307 308 309 310 311 313 313 313 314 315 316 317 317 318 319